Location: Pinawa
(50.1500°N, 95.8830°W)
Time: 16:58:48
(UTC-06:00)

ISS - All Passes

Search period start: 27 January 2015 00:00
Search period end: 06 February 2015 00:00
Orbit: 402 x 410 km, 51.6° (Epoch: 27 January)

Date Brightness Start Highest point End Pass type
(mag) Time Alt. Az. Time Alt. Az. Time Alt. Az.
27 Jan - 01:17:34 10° WSW 01:20:52 83° NNW 01:24:12 10° ENE night (unlit)
27 Jan - 02:54:14 10° WNW 02:57:32 68° N 03:00:51 10° E night (unlit)
27 Jan - 04:30:48 10° WNW 04:34:02 51° SSW 04:37:16 10° SE visible
27 Jan - 06:08:40 10° WSW 06:10:00 12° SW 06:11:15 10° SSW visible
27 Jan - 22:50:27 10° S 22:52:55 20° SE 22:55:25 10° E night (unlit)
28 Jan - 00:25:46 10° WSW 00:29:04 76° SSE 00:32:23 10° ENE night (unlit)
28 Jan - 02:02:23 10° W 02:05:40 65° N 02:08:59 10° E night (unlit)
28 Jan - 03:38:58 10° WNW 03:42:16 73° SSW 03:45:35 10° ESE night (unlit)
28 Jan - 05:15:59 10° W 05:18:25 19° SW 05:20:48 10° S visible
28 Jan - 21:59:52 10° SSE 22:01:18 12° SE 22:02:49 10° ESE night (unlit)
28 Jan - 23:34:03 10° SW 23:37:16 53° SSE 23:40:31 10° ENE night (unlit)
29 Jan - 01:10:29 10° W 01:13:47 67° N 01:17:06 10° ENE night (unlit)
29 Jan - 02:47:07 10° WNW 02:50:26 86° N 02:53:46 10° ESE night (unlit)
29 Jan - 04:23:49 10° W 04:26:45 29° SSW 04:29:39 10° SSE night (unlit)
29 Jan - 22:42:28 10° SW 22:45:31 36° SSE 22:48:35 10° E night (unlit)
30 Jan - 00:18:35 10° W 00:21:53 77° NNW 00:25:13 10° ENE night (unlit)
30 Jan - 01:55:15 10° WNW 01:58:33 72° N 02:01:52 10° E night (unlit)
30 Jan - 03:31:50 10° W 03:35:00 43° SSW 03:38:09 10° SE night (unlit)
30 Jan - 21:51:06 10° SSW 21:53:47 23° SE 21:56:30 10° E night (unlit)
30 Jan - 23:26:42 10° WSW 23:30:00 85° SSE 23:33:19 10° ENE night (unlit)
31 Jan - 01:03:20 10° W 01:06:38 65° N 01:09:56 10° E night (unlit)
31 Jan - 02:39:54 10° WNW 02:43:11 64° SSW 02:46:28 10° ESE night (unlit)
31 Jan - 04:17:09 10° W 04:19:15 16° SW 04:21:17 10° S night (unlit)
31 Jan - 21:00:08 10° S 21:02:04 15° SE 21:04:05 10° ESE night (unlit)
31 Jan - 22:34:52 10° WSW 22:38:07 62° SSE 22:41:24 10° ENE night (unlit)
01 Feb - 00:11:22 10° W 00:14:40 65° N 00:17:58 10° E night (unlit)
01 Feb - 01:47:59 10° WNW 01:51:18 87° SSW 01:54:37 10° ESE night (unlit)
01 Feb - 03:24:46 10° W 03:27:32 24° SW 03:30:15 10° SSE night (unlit)
01 Feb - 21:43:08 10° SW 21:46:16 42° SSE 21:49:24 10° E night (unlit)
01 Feb - 23:19:24 10° W 23:22:42 72° N 23:26:00 10° ENE night (unlit)
02 Feb - 00:56:02 10° WNW 00:59:21 76° N 01:02:40 10° E night (unlit)
02 Feb - 02:32:39 10° W 02:35:44 37° SSW 02:38:49 10° SE night (unlit)
02 Feb - 20:51:36 10° SSW 20:54:26 28° SSE 20:57:19 10° E night (unlit)
02 Feb - 22:27:25 10° WSW 22:30:43 87° NNW 22:34:02 10° ENE night (unlit)
03 Feb - 00:04:04 10° W 00:07:22 67° N 00:10:39 10° E night (unlit)
03 Feb - 01:40:37 10° WNW 01:43:52 55° SSW 01:47:06 10° SE night (unlit)
03 Feb - 03:18:13 10° WSW 03:19:51 13° SW 03:21:25 10° SSW night (unlit)
03 Feb - 20:00:21 10° S 20:02:39 18° SE 20:04:59 10° E visible
03 Feb - 21:35:28 10° WSW 21:38:45 71° SSE 21:42:02 10° ENE night (unlit)
03 Feb - 23:12:03 10° W 23:15:20 65° N 23:18:37 10° E night (unlit)
04 Feb - 00:48:37 10° WNW 00:51:55 78° SSW 00:55:14 10° ESE night (unlit)
04 Feb - 02:25:32 10° W 02:28:05 20° SW 02:30:36 10° SSE night (unlit)
04 Feb - 19:09:55 10° SSE 19:10:53 11° SE 19:11:56 10° ESE visible
04 Feb - 20:43:37 10° SW 20:46:48 49° SSE 20:50:00 10° ENE visible
04 Feb - 22:19:59 10° W 22:23:16 69° N 22:26:34 10° ENE night (unlit)
04 Feb - 23:56:37 10° WNW 23:59:56 82° NNE 00:03:14 10° ESE night (unlit)
05 Feb - 01:33:16 10° W 01:36:15 31° SSW 01:39:12 10° SSE night (unlit)
05 Feb - 19:51:55 10° SSW 19:54:53 32° SSE 19:57:53 10° E visible
05 Feb - 21:27:56 10° W 21:31:13 80° NNW 21:34:31 10° ENE night (unlit)
05 Feb - 23:04:35 10° WNW 23:07:52 70° N 23:11:10 10° E night (unlit)
